| time (UTC) | temp F | wind direction | speed MPH | gust MPH | rain 1hr in | rain 24hr in | rain mn in | humidity % | barometer mb |
| 20260902063002 | 58 | 88 | 1.0 | 4.0 | 0.00 | 0.00 | 0.00 | 72 | 1018.3 |
| 20260902061507 | 59 | 144 | 1.0 | 3.0 | 0.00 | 0.00 | 0.00 | 71 | 1018.4 |
| 20260902060103 | 59 | 37 | 1.0 | 6.0 | 0.00 | 0.00 | 0.00 | 70 | 1018.4 |
| 20260902054505 | 59 | 63 | 1.0 | 6.0 | 0.00 | 0.00 | 0.00 | 69 | 1018.3 |
| 20260902053002 | 60 | 81 | 1.0 | 3.0 | 0.00 | 0.00 | 0.00 | 69 | 1018.3 |
| 20260902051502 | 60 | 60 | 1.0 | 4.0 | 0.00 | 0.00 | 0.00 | 68 | 1018.3 |
| 20260902044502 | 60 | 138 | 1.0 | 2.0 | 0.00 | 0.00 | 0.00 | 64 | 1018.2 |
| 20260902043005 | 61 | 147 | 0.0 | 0.0 | 0.00 | 0.00 | 0.00 | 63 | 1018.1 |
| 20260902041502 | 61 | 141 | 0.0 | 1.0 | 0.00 | 0.00 | 0.00 | 62 | 1017.8 |
| 20260902040006 | 62 | 173 | 0.0 | 1.0 | 0.00 | 0.00 | 0.00 | 60 | 1017.6 |
| 20260902034616 | 62 | 160 | 0.0 | 2.0 | 0.00 | 0.00 | 0.00 | 59 | 1017.2 |
| 20260902033003 | 63 | 168 | 1.0 | 3.0 | 0.00 | 0.00 | 0.00 | 58 | 1017.2 |
| 20260902031503 | 64 | 157 | 0.0 | 3.0 | 0.00 | 0.00 | 0.00 | 57 | 1016.7 |
| 20260902024502 | 65 | 183 | 0.0 | 3.0 | 0.00 | 0.00 | 0.00 | 54 | 1016.2 |
| 20260902023002 | 66 | 206 | 1.0 | 5.0 | 0.00 | 0.00 | 0.00 | 52 | 1016.2 |
| 20260902021507 | 67 | 175 | 1.0 | 3.0 | 0.00 | 0.00 | 0.00 | 49 | 1015.9 |
| 20260902020003 | 68 | 170 | 0.0 | 3.0 | 0.00 | 0.00 | 0.00 | 48 | 1016.0 |
| 20260902014503 | 69 | 187 | 1.0 | 5.0 | 0.00 | 0.00 | 0.00 | 45 | 1015.8 |
| 20260902013003 | 69 | 143 | 1.0 | 3.0 | 0.00 | 0.00 | 0.00 | 45 | 1015.8 |
| 20260902011503 | 70 | 135 | 2.0 | 4.0 | 0.00 | 0.00 | 0.00 | 44 | 1015.8 |
| 20260902010105 | 70 | 183 | 1.0 | 3.0 | 0.00 | 0.00 | 0.00 | 42 | 1015.9 |
| 20260902004501 | 71 | 218 | 1.0 | 6.0 | 0.00 | 0.00 | 0.00 | 43 | 1015.8 |
| 20260902003104 | 71 | 100 | 1.0 | 4.0 | 0.00 | 0.00 | 0.00 | 44 | 1015.9 |
| 20260902001502 | 72 | 212 | 2.0 | 6.0 | 0.00 | 0.00 | 0.00 | 45 | 1015.9 |
| 20260902000006 | 71 | 172 | 1.0 | 7.0 | 0.00 | 0.00 | 0.00 | 45 | 1016.0 |
| 20260901234503 | 72 | 191 | 3.0 | 7.0 | 0.00 | 0.00 | 0.00 | 44 | 1016.0 |
| 20260901233002 | 72 | 148 | 1.0 | 6.0 | 0.00 | 0.00 | 0.00 | 45 | 1016.1 |
| 20260901231504 | 72 | 122 | 1.0 | 5.0 | 0.00 | 0.00 | 0.00 | 45 | 1016.1 |
| 20260901230006 | 72 | 21 | 1.0 | 4.0 | 0.00 | 0.00 | 0.00 | 45 | 1016.3 |
| 20260901224502 | 73 | 185 | 2.0 | 5.0 | 0.00 | 0.00 | 0.00 | 43 | 1016.4 |
| 20260901223003 | 72 | 181 | 2.0 | 5.0 | 0.00 | 0.00 | 0.00 | 45 | 1016.5 |
| 20260901221504 | 73 | 203 | 1.0 | 7.0 | 0.00 | 0.00 | 0.00 | 46 | 1016.6 |
| 20260901220010 | 72 | 196 | 2.0 | 5.0 | 0.00 | 0.00 | 0.00 | 47 | 1016.6 |
| 20260901214501 | 71 | 185 | 2.0 | 7.0 | 0.00 | 0.00 | 0.00 | 49 | 1016.7 |
| 20260901213001 | 71 | 224 | 2.0 | 5.0 | 0.00 | 0.00 | 0.00 | 48 | 1016.6 |
| 20260901211503 | 70 | 158 | 1.0 | 9.0 | 0.00 | 0.00 | 0.00 | 50 | 1016.8 |
| 20260901210002 | 70 | 172 | 3.0 | 7.0 | 0.00 | 0.00 | 0.00 | 52 | 1017.1 |
| 20260901203003 | 69 | 188 | 2.0 | 4.0 | 0.00 | 0.00 | 0.00 | 54 | 1017.5 |
| 20260901201502 | 68 | 189 | 2.0 | 4.0 | 0.00 | 0.00 | 0.00 | 55 | 1017.5 |
| 20260901200008 | 68 | 138 | 2.0 | 6.0 | 0.00 | 0.00 | 0.00 | 54 | 1017.6 |
| 20260901194501 | 67 | 161 | 2.0 | 4.0 | 0.00 | 0.00 | 0.00 | 56 | 1017.6 |
| 20260901193105 | 67 | 71 | 1.0 | 8.0 | 0.00 | 0.00 | 0.00 | 56 | 1017.6 |
| 20260901191503 | 67 | 63 | 2.0 | 6.0 | 0.00 | 0.00 | 0.00 | 56 | 1017.7 |
| 20260901190001 | 65 | 118 | 1.0 | 6.0 | 0.00 | 0.00 | 0.00 | 59 | 1017.8 |
| 20260901184606 | 65 | 187 | 1.0 | 9.0 | 0.00 | 0.00 | 0.00 | 60 | 1017.9 |
| 20260901183002 | 65 | 108 | 1.0 | 6.0 | 0.00 | 0.00 | 0.00 | 60 | 1017.9 |
| 20260901181603 | 64 | 123 | 2.0 | 8.0 | 0.00 | 0.00 | 0.00 | 60 | 1018.0 |
| 20260901180003 | 63 | 154 | 1.0 | 8.0 | 0.00 | 0.00 | 0.00 | 63 | 1017.8 |
| 20260901174503 | 62 | 126 | 1.0 | 7.0 | 0.00 | 0.00 | 0.00 | 66 | 1017.5 |
| 20260901173002 | 61 | 130 | 1.0 | 7.0 | 0.00 | 0.00 | 0.00 | 67 | 1017.8 |
| 20260901171502 | 60 | 129 | 1.0 | 5.0 | 0.00 | 0.00 | 0.00 | 68 | 1017.6 |
| 20260901170003 | 60 | 140 | 1.0 | 5.0 | 0.00 | 0.00 | 0.00 | 71 | 1017.5 |
| 20260901164502 | 59 | 291 | 1.0 | 4.0 | 0.00 | 0.00 | 0.00 | 72 | 1017.5 |
| 20260901163003 | 59 | 173 | 1.0 | 7.0 | 0.00 | 0.00 | 0.00 | 71 | 1017.4 |
| 20260901161504 | 59 | 66 | 2.0 | 6.0 | 0.00 | 0.00 | 0.00 | 71 | 1017.1 |
| 20260901160001 | 58 | 139 | 1.0 | 7.0 | 0.00 | 0.00 | 0.00 | 74 | 1016.9 |
| 20260901154603 | 58 | 137 | 1.0 | 8.0 | 0.00 | 0.00 | 0.00 | 74 | 1016.9 |
| 20260901153001 | 57 | 61 | 3.0 | 7.0 | 0.00 | 0.00 | 0.00 | 75 | 1016.6 |
| 20260901151503 | 57 | 52 | 3.0 | 9.0 | 0.00 | 0.00 | 0.00 | 77 | 1016.3 |
| 20260901150001 | 56 | 14 | 2.0 | 5.0 | 0.00 | 0.00 | 0.00 | 79 | 1016.3 |
| 20260901144500 | 56 | 92 | 2.0 | 7.0 | 0.00 | 0.00 | 0.00 | 81 | 1015.8 |
| 20260901143002 | 56 | 47 | 1.0 | 6.0 | 0.00 | 0.00 | 0.00 | 81 | 1015.5 |
| 20260901141601 | 56 | 68 | 2.0 | 6.0 | 0.00 | 0.00 | 0.00 | 82 | 1015.4 |
| 20260901140108 | 55 | 56 | 3.0 | 9.0 | 0.00 | 0.00 | 0.00 | 82 | 1015.3 |
| 20260901140002 | 55 | 53 | 2.0 | 9.0 | 0.00 | 0.00 | 0.00 | 82 | 1015.3 |
| 20260901134701 | 55 | 114 | 2.0 | 6.0 | 0.00 | 0.00 | 0.00 | 83 | 1015.3 |
| 20260901133107 | 55 | 27 | 3.0 | 9.0 | 0.00 | 0.00 | 0.00 | 83 | 1015.1 |
| 20260901133002 | 55 | 69 | 3.0 | 9.0 | 0.00 | 0.00 | 0.00 | 83 | 1015.1 |
| 20260901131600 | 55 | 66 | 2.0 | 8.0 | 0.00 | 0.00 | 0.00 | 83 | 1014.9 |
| 20260901131501 | 55 | 60 | 2.0 | 8.0 | 0.00 | 0.00 | 0.00 | 83 | 1015.0 |
| 20260901130002 | 55 | 146 | 2.0 | 7.0 | 0.00 | 0.00 | 0.00 | 83 | 1014.8 |
| 20260901124502 | 55 | 85 | 1.0 | 7.0 | 0.00 | 0.00 | 0.00 | 83 | 1014.9 |
| 20260901123004 | 55 | 21 | 3.0 | 9.0 | 0.00 | 0.00 | 0.00 | 83 | 1015.1 |
| 20260901121503 | 55 | 52 | 2.0 | 6.0 | 0.00 | 0.00 | 0.00 | 83 | 1015.1 |
| 20260901120002 | 55 | 52 | 1.0 | 6.0 | 0.00 | 0.00 | 0.00 | 84 | 1014.7 |
| 20260901114502 | 55 | 16 | 1.0 | 5.0 | 0.00 | 0.00 | 0.00 | 84 | 1014.6 |
| 20260901113003 | 54 | 152 | 0.0 | 3.0 | 0.00 | 0.00 | 0.00 | 85 | 1014.4 |
| 20260901111603 | 54 | 102 | 1.0 | 3.0 | 0.00 | 0.00 | 0.00 | 85 | 1014.3 |
| 20260901110100 | 54 | 20 | 2.0 | 5.0 | 0.00 | 0.00 | 0.00 | 85 | 1014.4 |
| 20260901110004 | 54 | 118 | 2.0 | 5.0 | 0.00 | 0.00 | 0.00 | 85 | 1014.4 |
| 20260901104609 | 54 | 351 | 2.0 | 8.0 | 0.00 | 0.00 | 0.00 | 84 | 1014.1 |
| 20260901103102 | 54 | 21 | 2.0 | 6.0 | 0.00 | 0.00 | 0.00 | 84 | 1014.1 |
| 20260901101503 | 54 | 41 | 1.0 | 10.0 | 0.00 | 0.00 | 0.00 | 84 | 1014.0 |
| 20260901100101 | 54 | 36 | 2.0 | 6.0 | 0.00 | 0.00 | 0.00 | 84 | 1014.0 |
| 20260901100002 | 54 | 42 | 2.0 | 6.0 | 0.00 | 0.00 | 0.00 | 84 | 1014.1 |
| 20260901094503 | 54 | 38 | 1.0 | 7.0 | 0.00 | 0.00 | 0.00 | 83 | 1014.2 |
| 20260901093102 | 55 | 75 | 1.0 | 5.0 | 0.00 | 0.00 | 0.00 | 82 | 1014.2 |
| 20260901091503 | 55 | 66 | 0.0 | 7.0 | 0.00 | 0.00 | 0.00 | 82 | 1014.2 |
| 20260901090006 | 55 | 65 | 1.0 | 4.0 | 0.00 | 0.00 | 0.00 | 81 | 1014.1 |
| 20260901084501 | 55 | 64 | 3.0 | 5.0 | 0.00 | 0.00 | 0.00 | 81 | 1014.1 |
| 20260901083003 | 55 | 46 | 1.0 | 4.0 | 0.00 | 0.00 | 0.00 | 81 | 1014.2 |
| 20260901081504 | 55 | 330 | 3.0 | 8.0 | 0.00 | 0.00 | 0.00 | 81 | 1014.0 |
| 20260901080002 | 55 | 79 | 1.0 | 10.0 | 0.00 | 0.00 | 0.00 | 81 | 1014.2 |
| 20260901074502 | 56 | 46 | 1.0 | 7.0 | 0.00 | 0.00 | 0.00 | 80 | 1014.2 |
| 20260901073006 | 56 | 29 | 3.0 | 9.0 | 0.00 | 0.00 | 0.00 | 79 | 1014.3 |
| 20260901071503 | 57 | 55 | 0.0 | 5.0 | 0.00 | 0.00 | 0.00 | 78 | 1014.0 |
| 20260901070003 | 57 | 96 | 2.0 | 4.0 | 0.00 | 0.00 | 0.00 | 77 | 1013.9 |
| 20260901064504 | 58 | 100 | 2.0 | 5.0 | 0.00 | 0.00 | 0.00 | 76 | 1013.8 |